CZ-6A DEB, 54568

Orbit data source: Space-Track

CZ-6A DEB, 54568 is space debris in SSO originally from a launch on Fri, 11 Nov 2022 UTC launched from the Taiyaun Space Center, China (TSC). Debris objects in space refer to the collection of defunct objects orbiting the Earth. Examples of debris include non-operational satellites, rocket bodies, and fragments generated from explosions, collisions, or faulty payload assembly.

Loading next visibility...
Identifier
54568, 2022-151LU
Orbit
SSO
Country
Flag of CNCN / PRC
Related business
Manufacturer
SAST
Mission
Spacecraft
Bus & Motor
Unknown
Mass
Unknown
Launch date (UTC)
2022-11-11 (4 years ago)
Launch vehicle
Unknown
Launch site
Taiyaun Space Center, China (TSC)
Object type
Payload
Rocket body
Debris
Shape & HBR
Unknown shape, 0.1 m
Radar Cross Section
Small (<0.1 m²)

Expand to show TLE details & history
Last TLE update: 5 hours ago

TLE from 5 hours ago
0 CZ-6A DEB
1 54568U 22151LU  26236.56631341  .00004841  00000-0  13637-2 0  9996
2 54568  98.7415 280.4245 0031636  87.6170 272.8642 14.45974386197646
Epoch: 2026-08-24T13:35Z
TLE epoch observation values (Epoch: 2026-08-24T13:35:29.478Z)
Latitude
-0.00005°
Longitude
103.70551°
Altitude
740.722 km
Speed
7.485 km/s
True Right ascension
18h 41m 41s
True Declination
0° 00' 00"
Sunlit
Object was in full shadow at epoch
Visualization orbit readout
Latitude
Unknown
Longitude
Unknown
Altitude
Unknown
Speed
Unknown
Apparent Right ascension
Unknown
Apparent Declination
Unknown
Sunlit
N/A
Visualization observer readout
Local Sidereal Time
10:15:47
Azimuth
Unknown
Elevation
Unknown
Doppler factor
Unknown
Orbital elements
Apogee altitude
758.459 km
Perigee altitude
713.446 km
Semi-major axis
7,114.09 km
Eccentricity
0.00316
Inclination
98.7415°
RAAN
280.4245°
Arg. of periapsis
87.617°
True anomaly
272.50206°
Mean anomaly
272.8642°
Eccentric anomaly
272.68314°
Mean motion
3.61713 °/min
Orbital period
99.53 mins
BSTAR
0.0013637
Loading maneuver chart data...
Computing Atmospheric mass density...

Documentation

Showing up to 5 results
|